This is the latest recevied weather packets stored in our database for station/object VR2HK-13. If no packets are shown the sender has not sent any weather packets the latest 1 day(s).
| Time | Temp. | Humidity | Pressure | Rain* | Wind** | Luminosity | Snow |
|---|---|---|---|---|---|---|---|
| 1778018454 | 21.67° C | 86% | 1012.9 hPa | 0 mm | 1.34 m/s, 259° | - | - |
| 1778018402 | 21.67° C | 86% | 1012.9 hPa | 0 mm | 0 m/s | - | - |
| 1778018143 | 21.67° C | 85% | 1012.9 hPa | 0 mm | 1.34 m/s, 249° | - | - |
| 1778018102 | 21.67° C | 85% | 1012.9 hPa | 0 mm | 1.34 m/s, 277° | - | - |
| 1778017833 | 21.67° C | 85% | 1012.9 hPa | 0 mm | 0 m/s | - | - |
| 1778017802 | 21.67° C | 85% | 1012.8 hPa | 0 mm | 0 m/s | - | - |
| 1778017524 | 21.67° C | 85% | 1012.8 hPa | 0 mm | 0.45 m/s, 37° | - | - |
| 1778017502 | 21.67° C | 85% | 1012.8 hPa | 0 mm | 0.89 m/s, 301° | - | - |
| 1778017202 | 21.67° C | 85% | 1012.8 hPa | 0 mm | 0.45 m/s, 276° | - | - |
| 1778016904 | 21.67° C | 85% | 1012.9 hPa | 0 mm | 0.45 m/s, 26° | - | - |
| 1778016902 | 21.67° C | 85% | 1012.9 hPa | 0 mm | 0.45 m/s, 41° | - | - |
| 1778016602 | 21.67° C | 85% | 1012.8 hPa | 0 mm | 3.13 m/s, 175° | - | - |
| 1778016594 | 21.67° C | 85% | 1012.8 hPa | 0 mm | 3.13 m/s, 244° | - | - |
| 1778016302 | 21.67° C | 85% | 1012.9 hPa | 0 mm | 1.79 m/s, 264° | - | - |
| 1778016283 | 21.67° C | 85% | 1012.9 hPa | 0 mm | 0.89 m/s, 230° | - | - |
| 1778016002 | 21.67° C | 85% | 1012.9 hPa | 0 mm | 1.34 m/s, 252° | - | - |
| 1778015973 | 21.67° C | 85% | 1012.8 hPa | 0 mm | 0.89 m/s, 251° | - | - |
| 1778015702 | 21.67° C | 85% | 1012.7 hPa | 0 mm | 0.45 m/s, 284° | - | - |
| 1778015664 | 21.67° C | 85% | 1012.7 hPa | 0 mm | 1.34 m/s, 295° | - | - |
| 1778015401 | 21.67° C | 85% | 1012.7 hPa | 0 mm | 2.24 m/s, 269° | - | - |
| 1778015353 | 21.67° C | 85% | 1012.7 hPa | 0 mm | 2.24 m/s, 244° | - | - |
| 1778015102 | 21.67° C | 85% | 1012.7 hPa | 0 mm | 1.34 m/s, 281° | - | - |
| 1778015043 | 21.67° C | 85% | 1012.7 hPa | 0 mm | 2.68 m/s, 253° | - | - |
| 1778014801 | 21.67° C | 85% | 1012.6 hPa | 0 mm | 0.45 m/s, 251° | - | - |
| 1778014733 | 21.67° C | 85% | 1012.6 hPa | 0 mm | 1.79 m/s, 1° | - | - |
* Rain latest hour (hover to see other rain measurements)
** Current wind speed in m/s (hover to see current wind gust speed)